• In Czech Republic
  • List of Countries
  • For 7 days
  • Water Temperature
  • Satellite Maps
  • Weather Map
  • Weather Widgets
  • user-avatar
    Login

    Hourly Weather Etchmiadzin

    Today, 23 July, Monday

    Time Temperature Precipitation Wind Pressure Humidity
    00:00 +23°C° 0.4 mm 2 mps 682 mmHg 75%
    01:00 +23°C° 0.2 mm 2 mps 682 mmHg 76%
    02:00 +21°C° 0.2 mm 2 mps 682 mmHg 78%
    03:00 +21°C° 0.2 mm 2 mps 681 mmHg 79%
    04:00 +21°C° 0.2 mm 2 mps 681 mmHg 78%
    05:00 +23°C° 0.2 mm 2 mps 682 mmHg 76%
    06:00 +23°C° 0.2 mm 2 mps 682 mmHg 75%
    07:00 +24°C° 0.2 mm 2 mps 682 mmHg 68%
    08:00 +26°C° 0.2 mm 2 mps 682 mmHg 60%
    09:00 +28°C° 0.2 mm 2 mps 682 mmHg 53%
    10:00 +29°C° 0.3 mm 2 mps 682 mmHg 48%
    11:00 +30°C° 0.3 mm 2 mps 681 mmHg 44%
    12:00 +31°C° 0.3 mm 2 mps 681 mmHg 40%
    13:00 +32°C° 0.4 mm 2 mps 681 mmHg 38%
    14:00 +32°C° 0.4 mm 2 mps 681 mmHg 37%
    15:00 +32°C° 0.4 mm 2 mps 681 mmHg 36%
    16:00 +32°C° 0.7 mm 2 mps 681 mmHg 38%
    17:00 +31°C° 0.7 mm 2 mps 680 mmHg 40%
    18:00 +31°C° 0.7 mm 2 mps 680 mmHg 42%
    19:00 +29°C° 0.4 mm 2 mps 681 mmHg 48%
    20:00 +27°C° 0.4 mm 2 mps 681 mmHg 54%
    21:00 +25°C° 0.4 mm 2 mps 681 mmHg 60%
    22:00 +24°C° 0.3 mm 2 mps 681 mmHg 62%
    23:00 +24°C° 0.3 mm 2 mps 681 mmHg 65%

    Tomorrow, 24 July, Tuesday

    Time Temperature Precipitation Wind Pressure Humidity
    00:00 +23°C° 0.3 mm 2 mps 682 mmHg 67%
    01:00 +23°C° 0.2 mm 1 mps 681 mmHg 68%
    02:00 +22°C° 0.2 mm 1 mps 681 mmHg 70%
    03:00 +22°C° 0.2 mm 1 mps 681 mmHg 72%
    04:00 +23°C° 0 mm 1 mps 681 mmHg 70%
    05:00 +23°C° 0 mm 1 mps 682 mmHg 68%
    06:00 +24°C° 0 mm 1 mps 682 mmHg 67%
    07:00 +26°C° 0 mm 1 mps 682 mmHg 58%
    08:00 +28°C° 0 mm 2 mps 682 mmHg 49%
    09:00 +30°C° 0 mm 2 mps 682 mmHg 40%
    10:00 +31°C° 0 mm 2 mps 682 mmHg 36%
    11:00 +34°C° 0 mm 2 mps 682 mmHg 33%
    12:00 +35°C° 0 mm 2 mps 682 mmHg 29%
    13:00 +36°C° 0 mm 2 mps 682 mmHg 27%
    14:00 +36°C° 0 mm 3 mps 682 mmHg 26%
    15:00 +37°C° 0 mm 3 mps 681 mmHg 25%
    16:00 +36°C° 0 mm 2 mps 681 mmHg 27%
    17:00 +36°C° 0 mm 2 mps 681 mmHg 29%
    18:00 +35°C° 0 mm 2 mps 681 mmHg 31%
    19:00 +32°C° 0 mm 2 mps 681 mmHg 38%
    20:00 +30°C° 0 mm 2 mps 682 mmHg 44%
    21:00 +28°C° 0 mm 2 mps 682 mmHg 50%
    22:00 +27°C° 0 mm 2 mps 682 mmHg 54%
    23:00 +27°C° 0 mm 2 mps 682 mmHg 57%

    Day after tomorrow, 25 July, Wednesday

    Time Temperature Precipitation Wind Pressure Humidity
    00:00 +26°C° 0 mm 2 mps 683 mmHg 61%
    01:00 +26°C° 0 mm 2 mps 683 mmHg 61%
    02:00 +25°C° 0 mm 2 mps 683 mmHg 61%
    03:00 +25°C° 0 mm 2 mps 683 mmHg 62%
    04:00 +25°C° 0 mm 2 mps 683 mmHg 60%
    05:00 +26°C° 0 mm 2 mps 683 mmHg 58%
    06:00 +26°C° 0 mm 1 mps 683 mmHg 56%
    07:00 +29°C° 0 mm 2 mps 683 mmHg 48%
    08:00 +31°C° 0 mm 2 mps 684 mmHg 40%
    09:00 +34°C° 0 mm 2 mps 684 mmHg 32%
    10:00 +36°C° 0 mm 2 mps 684 mmHg 29%
    11:00 +37°C° 0 mm 3 mps 683 mmHg 26%
    12:00 +39°C° 0 mm 3 mps 683 mmHg 23%
    13:00 +39°C° 0 mm 3 mps 683 mmHg 22%
    14:00 +41°C° 0 mm 4 mps 683 mmHg 22%
    15:00 +42°C° 0 mm 4 mps 682 mmHg 21%
    16:00 +41°C° 0 mm 4 mps 682 mmHg 24%
    17:00 +39°C° 0 mm 3 mps 682 mmHg 28%
    18:00 +38°C° 0 mm 2 mps 682 mmHg 31%
    19:00 +36°C° 0.1 mm 2 mps 682 mmHg 37%
    20:00 +32°C° 0.1 mm 2 mps 682 mmHg 44%
    21:00 +30°C° 0.1 mm 2 mps 682 mmHg 51%
    22:00 +30°C° 0 mm 2 mps 682 mmHg 54%
    23:00 +29°C° 0 mm 2 mps 682 mmHg 57%

    26 July, Thursday

    Time Temperature Precipitation Wind Pressure Humidity
    00:00 +28°C° 0 mm 2 mps 683 mmHg 60%
    01:00 +28°C° 0 mm 2 mps 682 mmHg 61%
    02:00 +27°C° 0 mm 2 mps 682 mmHg 61%
    03:00 +27°C° 0 mm 2 mps 682 mmHg 62%
    04:00 +27°C° 0 mm 2 mps 683 mmHg 61%
    05:00 +27°C° 0 mm 2 mps 683 mmHg 61%
    06:00 +28°C° 0 mm 2 mps 683 mmHg 60%
    07:00 +30°C° 0 mm 2 mps 683 mmHg 52%
    08:00 +32°C° 0 mm 2 mps 683 mmHg 45%
    09:00 +35°C° 0 mm 2 mps 684 mmHg 38%
    10:00 +37°C° 0 mm 2 mps 683 mmHg 34%
    11:00 +38°C° 0 mm 3 mps 683 mmHg 31%
    12:00 +40°C° 0 mm 3 mps 683 mmHg 27%
    13:00 +40°C° 0.3 mm 3 mps 683 mmHg 26%
    14:00 +42°C° 0.3 mm 4 mps 682 mmHg 26%
    15:00 +42°C° 0.3 mm 4 mps 682 mmHg 25%
    16:00 +41°C° 0.3 mm 4 mps 682 mmHg 29%
    17:00 +40°C° 0.3 mm 4 mps 682 mmHg 32%
    18:00 +38°C° 0.3 mm 4 mps 682 mmHg 35%
    19:00 +36°C° 0 mm 3 mps 682 mmHg 42%
    20:00 +34°C° 0 mm 3 mps 682 mmHg 49%
    21:00 +31°C° 0 mm 3 mps 683 mmHg 56%
    22:00 +30°C° 0 mm 3 mps 683 mmHg 59%
    23:00 +29°C° 0 mm 3 mps 683 mmHg 61%

    27 July, Friday

    Time Temperature Precipitation Wind Pressure Humidity
    00:00 +28°C° 0 mm 3 mps 683 mmHg 63%
    01:00 +28°C° 0 mm 3 mps 683 mmHg 64%
    02:00 +27°C° 0 mm 3 mps 683 mmHg 65%
    03:00 +27°C° 0 mm 3 mps 683 mmHg 66%
    04:00 +27°C° 0 mm 3 mps 683 mmHg 65%
    05:00 +27°C° 0 mm 2 mps 683 mmHg 64%
    06:00 +27°C° 0 mm 2 mps 684 mmHg 63%
    07:00 +29°C° 0 mm 2 mps 684 mmHg 56%
    08:00 +31°C° 0 mm 2 mps 684 mmHg 49%
    09:00 +34°C° 0 mm 2 mps 684 mmHg 42%
    10:00 +36°C° 0 mm 2 mps 684 mmHg 38%
    11:00 +37°C° 0 mm 3 mps 683 mmHg 35%
    12:00 +39°C° 0 mm 3 mps 683 mmHg 31%
    13:00 +39°C° 0 mm 3 mps 683 mmHg 31%
    14:00 +41°C° 0 mm 4 mps 682 mmHg 30%
    15:00 +41°C° 0 mm 4 mps 682 mmHg 30%
    16:00 +40°C° 0 mm 5 mps 682 mmHg 33%
    17:00 +39°C° 0 mm 5 mps 682 mmHg 36%
    18:00 +36°C° 0 mm 5 mps 682 mmHg 39%
    19:00 +34°C° 0 mm 5 mps 682 mmHg 42%
    20:00 +33°C° 0 mm 4 mps 682 mmHg 45%
    21:00 +30°C° 0 mm 3 mps 683 mmHg 48%
    22:00 +29°C° 0 mm 3 mps 683 mmHg 49%
    23:00 +28°C° 0 mm 3 mps 683 mmHg 49%

    28 July, Saturday

    Time Temperature Precipitation Wind Pressure Humidity
    00:00 +27°C° 0 mm 3 mps 683 mmHg 50%
    01:00 +27°C° 0 mm 3 mps 683 mmHg 50%
    02:00 +26°C° 0 mm 3 mps 683 mmHg 50%
    03:00 +26°C° 0 mm 3 mps 683 mmHg 50%
    04:00 +26°C° 0 mm 3 mps 683 mmHg 50%
    05:00 +26°C° 0 mm 3 mps 683 mmHg 50%
    06:00 +26°C° 0 mm 2 mps 683 mmHg 50%
    07:00 +28°C° 0 mm 2 mps 683 mmHg 44%
    08:00 +31°C° 0 mm 2 mps 683 mmHg 39%
    09:00 +34°C° 0 mm 2 mps 683 mmHg 34%
    10:00 +36°C° 0 mm 3 mps 683 mmHg 31%
    11:00 +37°C° 0 mm 3 mps 683 mmHg 29%
    12:00 +39°C° 0 mm 3 mps 682 mmHg 26%
    13:00 +40°C° 0 mm 4 mps 682 mmHg 25%
    14:00 +41°C° 0 mm 4 mps 682 mmHg 24%
    15:00 +42°C° 0 mm 4 mps 682 mmHg 24%
    16:00 +40°C° 0 mm 5 mps 681 mmHg 27%
    17:00 +39°C° 0 mm 5 mps 681 mmHg 30%
    18:00 +37°C° 0 mm 5 mps 681 mmHg 34%
    19:00 +34°C° 0 mm 5 mps 682 mmHg 37%
    20:00 +32°C° 0 mm 4 mps 682 mmHg 39%
    21:00 +29°C° 0 mm 4 mps 682 mmHg 42%
    22:00 +29°C° 0 mm 3 mps 682 mmHg 42%
    23:00 +28°C° 0 mm 3 mps 682 mmHg 43%
    Show more